Location: Chuathbaluk
(61.5726°N, 159.2454°W)
Time: 03:40:48
(UTC+00:00)

Transit 4A - Pass Details

Date: 01 December 2020
Orbit: 864 x 980 km, 66.8° (Epoch: 26 January)

Event Time Altitude Azimuth Distance (km) Brightness Sun altitude
Rises 20:17:43 0° 243° (WSW) 3,666 11.0 2.6°
Reaches altitude 10° 20:20:17 10° 245° (WSW) 2,728 10.3 2.7°
Maximum altitude 20:26:42 76° 332° (NNW) 1,016 8.1 3.1°
Drops below altitude 10° 20:33:09 10° 58° (ENE) 2,736 10.3 3.4°
Sets 20:35:43 0° 60° (ENE) 3,677 11.0 3.6°
